Skip Page Navigation
NASA JPL Caltech
NASA Logo - Jet Propulsion Laboratory + View the NASA Portal
+ Near-Earth Object (NEO) Program
Search JPL
JPL Home Earth Solar System Stars & Galaxies Technology
JPL Solar System Dynamics
BODIES ORBITS EPHEMERIDES TOOLS PHYSICAL DATA DISCOVERY FAQ SITE MAP
JPL Small-Body Database Browser
Search: [ help ]  
(2012 UX136)
Classification: Apollo [NEO]          SPK-ID: 3614400
Ephemeris | Orbit Diagram | Orbital Elements | Physical Parameters | Close-Approach Data ]

[ hide orbit diagram ]
Orbit Diagram
Note: Make sure you have Java enabled on your browser to see the applet. This applet is provided as a 3D orbit visualization tool. The applet was implemented using 2-body methods, and hence should not be used for determining accurate long-term trajectories (over several years or decades) or planetary encounter circumstances. For accurate long-term ephemerides, please instead use our Horizons system.
Orbit Viewer

Additional Notes: the orbits shown in the applet are color coded. The planets are white lines, and the asteroid/comet is a blue line. The bright white line indicates the portion of the orbit that is above the ecliptic plane, and the darker portion is below the ecliptic plane. Likewise for the asteroid/comet orbit, the light blue indicates the portion above the ecliptic plane, and the dark blue the portion below the ecliptic plane.

Orbit Viewer applet originally written and kindly provided by Osamu Ajiki (AstroArts), and further modified by Ron Baalke (JPL).


Orbital Elements at Epoch 2456400.5 (2013-Apr-18.0) TDB
Reference: JPL 8 (heliocentric ecliptic J2000)
 Element Value Uncertainty (1-sigma)   Units 
e .182983133457095 0.00013829  
a 1.089029386073468 0.00011249 AU
q .8897553765828881 5.8713e-05 AU
i 4.539571706758452 0.0027221 deg
node 47.24894485713575 0.0012074 deg
peri 64.7920162925316 0.0032418 deg
M 91.69370311617375 0.0070083 deg
tp 2456294.770826645905
(2013-Jan-02.27082665)
0.0083023 JED
period 415.104866680428
1.14
0.064316
0.0001761
d
yr
n .8672507332397745 0.00013437 deg/d
Q 1.288303395564047 0.00013307 AU
  Orbit Determination Parameters
   # obs. used (total)      50  
   data-arc span      9 days  
   first obs. used      2012-10-22  
   last obs. used      2012-10-31  
   planetary ephem.      DE405  
   SB-pert. ephem.      SB405-CPV-2  
   condition code      6  
   fit RMS      .58845  
   data source      ORB  
   producer      Otto Matic  
   solution date      2013-Jan-02 15:04:25  

Additional Information
 Earth MOID = .00684616 AU 
 T_jup = 5.675 
[ show covariance matrix ]

Ephemeris | Orbit Diagram | Orbital Elements | Physical Parameters | Close-Approach Data ]

Physical Parameter Table
Parameter Symbol Value Units Sigma Reference Notes
absolute magnitude H 25.447 mag .4208 8 autocmod 2.5b
rotation period rot_per 0.03811 h n/a Asteroid Lightcurve DataBase (Rev. 2013-May-01) [Result based on less than full coverage, so that the period may be wrong by 30 percent or so.]

[ show close-approach data ]
Ephemeris | Orbit Diagram | Orbital Elements | Physical Parameters | Close-Approach Data ]
ABOUT SSD CREDITS/AWARDS PRIVACY/COPYRIGHT GLOSSARY LINKS
FirstGov 2013-May-21 05:33 UT
(server date/time)  
NASA Home Page
Site Manager:   Donald K. Yeomans
Webmaster  Alan B. Chamberlin